< < Back
Terminal Aerodrome Forecast


Current Version              Previous Versions:   1  2  3  4  5  6  7  8  9  

Terminal Aerodrome Forecast

527
FTUS42 KCAE 200800 AAA
TAFCAE
TAF AMD
KCAE 200831Z 2009/2106 VRB03KT P6SM SCT250
     FM201600 20005KT P6SM FEW035
     FM202300 VRB03KT P6SM SKC=



Latest METAR

752
SAUS80 KWBC 200900
MTRCAE
METAR KCAE 200856Z 00000KT 10SM CLR 07/06 A3012 RMK AO2 SLP200 T00720056
55001


USA.gov is the U.S. government's official web portal to all federal, state and local government web resources and services.